Location: Unspecified
(0.0000°N, 0.0000°E)
Time: 12:00:32
(UTC+00:00)

deb Explorer IX - Pass Details

Date: 15 December 2018
Orbit: 536 x 1116 km, 38.8° (Epoch: 25 March)

Event Time Altitude Azimuth Distance (km) Brightness Sun altitude
Rises 12:26:58 0° 198° (SSW) 3,715 ? 65.5°
Reaches altitude 10° 12:31:42 10° 170° (S) 2,623 ? 65.1°
Maximum altitude 12:34:05 12° 147° (SSE) 2,384 ? 64.9°
Drops below altitude 10° 12:36:21 10° 124° (SE) 2,461 ? 64.7°
Sets 12:40:25 0° 94° (E) 3,236 ? 64.3°
